Wind_Speed
23 25 26 27 27 26 25 25 24 24 24 23 23 24 22 23 23 23 23 23 24 24 26 27 26 27 28 28 27 26 25 24 23 21 20 20 19 18 17 16 15 14 12
24 24 24 25 25 25 25 26 25 26 26 26 25 25 24 23 24 24 25 25 25 25 26 27 28 27 29 30 29 29 28 28 27 25 23 22 21 21 20 19 18 16 15
23 25 25 24 25 25 25 26 26 26 27 27 26 27 27 26 26 26 26 27 28 27 27 28 29 29 29 30 31 32 32 31 29 28 27 25 24 23 22 21 20 19 17
24 25 26 25 25 26 26 26 27 28 28 28 27 28 28 29 29 28 29 29 29 29 29 30 30 31 31 32 33 33 34 34 32 31 30 29 27 26 25 23 22 21 20
25 25 26 26 26 27 28 28 28 29 29 29 29 29 29 30 31 31 30 30 30 31 31 31 32 33 33 33 34 35 36 36 35 33 32 31 30 28 27 26 24 23 22
27 27 27 27 28 29 29 29 30 31 32 32 32 32 32 32 33 33 33 33 32 32 33 33 33 34 34 35 35 36 38 38 38 37 35 34 32 31 29 28 26 25 24
27 28 28 28 29 30 30 31 31 32 33 33 33 34 34 34 35 35 35 35 35 34 34 34 34 35 35 36 37 37 39 39 40 40 38 36 35 33 31 30 28 27 26
28 28 29 29 29 30 31 31 32 33 33 34 34 35 35 36 37 37 37 37 37 36 36 35 35 35 36 38 38 38 39 40 40 41 41 39 37 36 34 32 30 29 28
29 29 29 29 30 30 30 31 32 32 33 34 34 35 36 37 37 37 38 39 39 39 38 37 36 37 36 38 39 40 40 41 41 42 42 42 39 38 36 34 32 31 29
29 29 29 30 30 31 31 31 32 33 33 34 34 35 36 36 37 37 38 39 40 40 40 39 38 38 37 38 40 40 40 41 41 42 42 42 42 40 38 36 34 32 31
28 29 29 30 30 31 31 32 33 34 34 35 35 36 36 37 37 38 39 39 40 41 41 40 40 39 39 39 40 41 41 41 42 42 43 43 43 42 41 38 36 34 32
28 28 29 30 31 32 32 33 34 35 35 36 37 37 38 38 38 39 39 40 41 41 42 41 41 41 40 40 40 41 41 41 42 42 43 44 43 43 43 41 39 36 34
29 29 30 31 32 33 34 34 35 36 37 37 38 39 39 39 39 40 40 41 42 42 42 42 42 41 41 41 41 41 41 42 42 43 44 45 43 42 43 41 40 38 36
30 30 31 32 33 34 35 35 36 37 37 38 39 40 40 40 40 41 41 41 42 43 44 43 43 43 42 42 42 42 41 41 42 43 44 45 44 43 42 41 41 39 37
31 32 33 34 35 36 36 37 37 38 38 39 40 40 41 41 41 41 41 42 42 43 44 44 43 43 43 42 43 42 41 41 42 43 43 44 44 42 42 42 42 40 37
33 34 35 36 37 37 37 37 38 38 39 39 40 40 40 41 42 42 42 42 42 43 44 45 45 45 44 43 43 43 42 40 41 43 42 44 44 43 42 42 42 41 38
36 36 37 37 38 38 38 38 38 39 39 39 40 40 40 41 42 42 43 43 43 43 43 44 45 45 45 44 42 43 43 41 41 42 42 43 43 43 42 41 41 41 39
38 39 39 39 38 38 38 38 39 38 38 38 39 39 40 41 41 42 43 44 44 44 44 45 45 45 45 45 43 43 44 44 43 43 43 43 43 43 43 42 41 41 40
40 40 40 39 39 39 39 39 38 38 38 38 39 39 40 40 41 42 43 44 45 45 45 46 46 46 46 46 44 44 44 44 45 45 43 44 44 43 43 43 43 42 40
42 41 41 40 39 39 39 39 38 38 38 38 38 39 40 41 41 42 43 44 45 46 46 47 47 47 47 47 46 45 44 43 44 46 44 44 44 44 44 44 44 43 42
42 42 41 40 39 39 38 38 37 37 36 36 37 38 39 41 42 43 44 45 45 46 47 48 48 48 48 48 48 46 45 44 43 45 45 45 44 45 46 45 45 44 43
43 42 41 40 39 38 38 37 36 35 35 35 35 36 37 38 40 42 43 45 47 47 48 49 50 50 50 49 50 49 47 46 45 44 46 46 45 44 47 47 46 46 44
42 41 40 38 37 37 37 36 35 34 34 34 34 35 36 36 38 40 42 43 44 46 48 49 50 51 51 51 51 50 51 48 47 46 46 47 47 47 47 48 48 48 46
41 40 39 37 36 36 35 34 34 33 33 33 34 34 35 36 37 38 39 41 42 44 47 49 50 51 51 52 53 51 51 50 49 48 47 47 47 47 47 48 48 47 46
40 39 38 37 36 35 34 33 33 32 32 32 33 33 34 35 36 37 38 38 39 41 44 47 49 51 52 52 54 53 53 52 49 48 48 47 47 47 47 48 49 48 47
40 38 37 36 35 34 34 33 32 31 31 30 30 31 31 32 34 34 35 37 37 39 42 45 47 50 52 53 54 55 53 52 51 50 48 47 47 48 48 48 49 48 47
Wind_Direction
278 281 278 275 273 273 273 272 272 273 270 271 268 264 263 260 258 257 256 253 252 249 243 238 238 238 235 232 228 225 223 220 218 218 219 221 221 220 219 218 218 217 216
281 282 284 279 275 274 275 275 272 272 272 271 269 266 264 263 260 258 256 254 252 248 245 240 240 241 239 236 232 227 225 224 221 220 219 220 222 223 223 222 221 222 222
284 283 281 282 277 276 278 276 274 275 273 271 270 266 264 264 261 259 257 254 251 250 247 244 243 242 241 239 235 230 226 225 224 223 221 221 222 223 224 224 225 224 225
288 287 282 283 281 280 278 277 275 276 274 273 271 267 264 263 262 259 258 254 251 249 248 247 246 243 243 241 237 233 228 226 226 225 224 223 223 223 225 226 226 226 227
288 288 284 284 284 283 280 279 278 276 274 272 270 268 265 263 261 258 258 255 251 249 248 247 246 244 242 242 238 235 230 227 226 226 225 224 224 224 225 226 228 229 229
289 288 285 284 284 283 281 279 277 275 273 270 268 267 265 264 260 258 257 256 253 250 248 248 246 245 243 241 239 237 233 229 228 227 226 226 225 225 225 226 228 229 230
291 290 288 286 284 282 281 278 276 274 272 270 268 267 265 263 261 258 255 255 253 251 249 249 247 245 244 241 239 239 236 231 229 227 227 226 226 226 225 227 229 230 231
294 292 290 288 286 284 281 279 277 275 273 270 268 266 264 262 260 258 255 254 252 251 250 249 247 245 244 242 239 238 238 235 230 228 227 226 226 225 226 227 228 229 230
297 295 293 290 288 286 283 280 278 276 273 271 269 266 264 261 260 258 255 253 251 250 250 249 247 245 245 242 239 237 236 235 234 232 229 227 226 225 225 226 227 228 229
297 295 293 290 288 286 283 281 279 277 274 272 269 267 264 262 259 257 256 254 251 249 249 248 246 245 244 242 239 238 236 236 234 232 229 227 226 225 225 225 226 227 227
296 294 293 291 289 286 284 282 279 277 275 273 270 267 265 262 259 256 254 253 252 249 247 246 245 244 243 241 239 237 236 235 233 231 229 228 227 227 225 225 225 226 227
299 297 295 293 291 288 285 283 280 278 276 274 271 269 266 263 260 256 253 251 251 249 247 246 245 243 242 240 238 237 236 236 234 231 230 228 228 228 226 224 224 225 227
302 299 297 295 292 289 286 284 281 278 276 274 272 269 267 264 261 257 254 251 250 249 247 245 244 242 241 239 237 237 236 235 233 232 231 229 229 228 226 224 223 224 225
303 301 299 297 294 291 288 285 282 279 276 274 272 269 266 264 261 258 255 251 249 247 246 244 243 241 240 238 237 237 235 233 232 232 231 230 229 228 225 223 222 223 224
306 304 301 299 296 293 289 286 283 280 277 274 271 268 265 263 260 257 255 251 248 246 245 243 242 241 239 237 236 235 234 233 232 231 230 229 226 226 225 226 223 222 222
308 306 304 301 298 295 291 287 284 281 277 274 271 268 265 262 259 256 254 251 248 245 244 243 241 240 238 236 236 234 233 232 230 229 228 226 225 225 226 225 223 221 220
310 308 306 303 300 296 292 288 285 282 278 274 271 268 265 262 259 256 253 250 248 246 243 242 240 239 237 236 235 233 232 231 229 228 226 225 224 224 223 222 220 219 218
311 309 307 305 301 298 294 290 286 283 279 275 271 267 264 262 259 256 253 250 248 246 243 241 240 238 236 235 234 233 232 230 230 228 225 223 223 222 221 220 219 217 217
313 310 308 305 303 299 296 292 288 283 279 275 271 267 264 262 259 256 253 250 248 246 243 241 239 237 235 233 232 231 231 230 229 227 225 224 221 221 219 219 217 216 216
314 311 309 306 304 300 297 293 289 285 281 276 272 268 265 262 259 256 253 251 248 246 243 241 238 236 234 232 231 231 229 227 228 226 224 223 221 220 218 217 216 214 214
316 313 311 308 305 302 299 296 292 288 284 279 274 271 267 264 260 256 253 251 248 245 242 240 238 235 233 231 230 229 228 227 226 224 222 222 220 220 217 216 214 212 214
318 315 313 310 308 305 302 298 294 290 286 281 277 274 270 266 262 258 255 251 248 244 241 238 236 234 231 229 228 228 228 227 225 224 222 221 221 221 216 214 214 212 213
320 318 316 313 310 308 305 302 297 293 288 283 279 276 273 269 264 259 255 251 248 244 240 237 234 232 230 227 227 227 227 227 226 225 224 221 221 220 217 214 214 212 212
322 320 318 315 313 310 308 304 300 295 291 287 283 278 274 270 265 259 255 250 246 242 239 235 233 231 228 226 225 225 225 225 225 226 223 222 220 219 218 215 213 211 212
324 322 320 318 315 312 310 308 303 299 294 289 285 280 275 270 264 258 253 248 244 240 236 233 231 229 227 225 223 223 223 222 223 224 224 223 220 218 217 215 213 211 212
325 323 322 320 318 316 314 311 307 303 298 293 289 284 278 271 265 259 252 247 242 238 235 232 230 228 226 225 223 222 222 222 222 221 222 222 220 217 217 214 212 211 212
Height
5877 5876 5875 5874 5874 5874 5873 5873 5873 5873 5873 5873 5873 5873 5874 5875 5876 5876 5878 5879 5880 5882 5883 5885 5886 5888 5890 5892 5894 5897 5899 5901 5903 5906 5908 5910 5912 5914 5916 5918 5919 5921 5923
5871 5870 5869 5869 5868 5868 5867 5867 5867 5867 5866 5866 5867 5867 5868 5869 5869 5870 5871 5873 5874 5876 5877 5879 5881 5883 5885 5887 5889 5892 5894 5897 5899 5901 5904 5907 5909 5911 5913 5915 5917 5919 5921
5866 5865 5864 5864 5862 5861 5861 5860 5860 5860 5860 5860 5860 5861 5862 5862 5863 5864 5865 5866 5868 5870 5871 5873 5875 5877 5878 5880 5883 5886 5889 5892 5894 5897 5899 5902 5905 5908 5910 5912 5914 5916 5918
5861 5859 5858 5858 5856 5855 5854 5854 5854 5854 5853 5853 5854 5854 5855 5856 5857 5857 5858 5859 5861 5863 5865 5867 5868 5870 5872 5874 5877 5879 5882 5885 5889 5892 5895 5898 5900 5903 5906 5909 5911 5913 5915
5854 5853 5852 5851 5849 5848 5847 5847 5847 5847 5846 5846 5846 5846 5847 5848 5849 5850 5851 5852 5853 5855 5858 5859 5861 5863 5865 5867 5870 5872 5875 5878 5882 5886 5889 5893 5896 5899 5902 5905 5907 5910 5912
5848 5846 5845 5843 5842 5841 5840 5839 5839 5839 5838 5838 5838 5838 5839 5839 5841 5842 5843 5844 5846 5847 5849 5851 5853 5855 5858 5860 5862 5865 5868 5871 5875 5879 5883 5887 5890 5893 5897 5900 5903 5906 5908
5841 5839 5837 5836 5834 5833 5832 5831 5831 5830 5830 5830 5830 5830 5830 5831 5832 5833 5834 5836 5837 5839 5841 5842 5845 5847 5849 5852 5854 5857 5860 5864 5868 5872 5876 5880 5884 5888 5891 5895 5898 5901 5904
5834 5831 5830 5828 5826 5825 5824 5823 5822 5821 5821 5821 5821 5821 5822 5823 5823 5824 5825 5826 5828 5830 5832 5834 5836 5839 5841 5843 5846 5850 5852 5856 5860 5864 5869 5873 5877 5882 5885 5889 5893 5896 5899
5826 5824 5822 5820 5818 5816 5815 5814 5813 5812 5812 5812 5811 5812 5812 5813 5813 5814 5815 5817 5818 5820 5823 5825 5827 5830 5832 5835 5838 5841 5844 5848 5852 5856 5860 5865 5870 5875 5879 5883 5887 5891 5894
5819 5817 5815 5812 5810 5808 5807 5806 5805 5803 5802 5802 5802 5802 5802 5803 5803 5804 5805 5806 5808 5810 5813 5816 5818 5821 5823 5826 5829 5832 5836 5839 5843 5848 5852 5857 5862 5867 5872 5876 5881 5885 5888
5812 5810 5807 5805 5803 5800 5799 5797 5796 5794 5793 5792 5792 5792 5792 5792 5793 5794 5795 5797 5798 5800 5803 5806 5808 5811 5814 5817 5820 5823 5827 5831 5835 5839 5844 5849 5854 5860 5864 5869 5874 5878 5883
5805 5802 5800 5797 5794 5792 5790 5788 5786 5785 5783 5782 5781 5781 5781 5782 5783 5783 5785 5786 5788 5790 5793 5796 5799 5802 5804 5808 5811 5815 5818 5822 5826 5831 5836 5841 5846 5851 5856 5861 5867 5872 5876
5798 5795 5792 5789 5786 5783 5780 5778 5776 5774 5773 5772 5771 5770 5770 5770 5771 5773 5774 5776 5777 5780 5782 5785 5788 5792 5795 5798 5802 5806 5810 5814 5818 5823 5828 5833 5838 5843 5848 5853 5859 5864 5870
5791 5787 5783 5780 5776 5773 5770 5768 5765 5764 5762 5761 5760 5759 5758 5759 5759 5761 5763 5764 5767 5769 5771 5774 5778 5781 5785 5788 5793 5797 5801 5805 5809 5814 5819 5825 5830 5835 5840 5846 5852 5857 5863
5783 5779 5774 5770 5766 5763 5760 5757 5754 5752 5750 5749 5748 5747 5747 5747 5748 5749 5751 5753 5756 5758 5761 5764 5767 5771 5775 5779 5783 5787 5791 5796 5800 5806 5811 5816 5822 5827 5833 5838 5844 5850 5856
5774 5769 5765 5760 5756 5752 5749 5745 5743 5740 5738 5737 5735 5735 5735 5735 5736 5737 5739 5741 5743 5746 5749 5753 5756 5760 5764 5769 5773 5778 5782 5787 5791 5796 5802 5807 5813 5819 5825 5831 5837 5843 5849
5765 5759 5754 5749 5745 5741 5737 5733 5730 5728 5726 5724 5723 5722 5722 5722 5723 5725 5726 5729 5731 5734 5738 5741 5745 5749 5754 5758 5763 5768 5773 5777 5782 5787 5793 5799 5805 5811 5817 5823 5829 5836 5842
5754 5749 5743 5738 5733 5729 5725 5721 5718 5715 5713 5711 5710 5709 5709 5709 5710 5712 5713 5716 5719 5722 5726 5730 5733 5738 5743 5748 5753 5758 5763 5768 5773 5778 5784 5790 5796 5802 5808 5815 5822 5828 5835
5744 5738 5732 5727 5722 5717 5712 5708 5705 5703 5700 5698 5697 5696 5696 5696 5697 5698 5700 5703 5706 5709 5713 5718 5722 5727 5732 5737 5743 5748 5754 5759 5764 5769 5775 5781 5787 5794 5800 5807 5814 5821 5828
5734 5727 5721 5715 5710 5705 5700 5696 5693 5690 5687 5685 5684 5683 5683 5683 5684 5685 5687 5689 5692 5696 5700 5705 5710 5715 5720 5726 5732 5738 5744 5749 5754 5760 5766 5772 5778 5785 5792 5799 5806 5813 5820
5723 5717 5710 5704 5698 5693 5688 5684 5680 5677 5674 5672 5670 5669 5669 5669 5669 5671 5673 5675 5678 5682 5686 5691 5697 5703 5709 5715 5721 5728 5734 5740 5745 5750 5757 5763 5770 5776 5783 5790 5797 5805 5812
5713 5706 5699 5693 5687 5681 5677 5672 5668 5664 5661 5659 5657 5656 5655 5655 5655 5656 5658 5661 5664 5668 5673 5678 5684 5690 5696 5703 5710 5716 5723 5730 5736 5742 5748 5754 5761 5768 5775 5782 5789 5797 5805
5703 5696 5689 5682 5676 5670 5665 5660 5656 5652 5649 5647 5644 5643 5641 5641 5641 5642 5643 5645 5649 5653 5658 5664 5670 5677 5684 5691 5698 5705 5712 5718 5726 5732 5738 5745 5752 5759 5766 5773 5781 5789 5797
5694 5686 5679 5673 5666 5660 5655 5650 5645 5641 5638 5635 5632 5630 5628 5627 5627 5627 5629 5631 5635 5639 5644 5650 5657 5664 5670 5677 5686 5693 5700 5707 5715 5722 5729 5736 5743 5750 5758 5765 5773 5780 5789
5685 5677 5670 5663 5657 5651 5645 5639 5634 5630 5626 5623 5620 5617 5615 5614 5613 5614 5616 5618 5622 5625 5630 5637 5643 5650 5657 5665 5674 5682 5689 5697 5705 5712 5720 5727 5734 5741 5749 5756 5764 5772 5781
5676 5669 5661 5654 5648 5641 5635 5630 5624 5620 5616 5612 5608 5605 5603 5601 5601 5601 5603 5606 5609 5613 5618 5624 5631 5638 5646 5654 5662 5671 5679 5687 5694 5702 5710 5718 5725 5733 5740 5748 5756 5764 5772